BAW283 EGLL-KLAX

Flight info

Callsign BAW283
Flight time N/A
Altitude 34000
Route CPT DCT DIDZA N14 OKSAW DCT BIBPE DCT OKTAD DCT MEDOG DCT VATRY DCT RESNO/M084F340 DCT 57N020W 60N030W 62N040W 63N050W/M083F360 DCT EMBOK DCT BERUS/N0472F360 DCT TEFFO DCT RONPU DCT 58N090W 55N095W/N0489F380 DCT YDN DCT ISN DCT MLS DCT FBR DCT MLF DCT WINEN/N0476F390 Q73 EEVUN/N0479F400 Q73 HAKMN ANJLL4
Aircraft B77W/H-SDE2E3FGHIJ5LORVWXY/LB1D1

Departure

Time N/A
Airport London Heathrow Airport (EGLL)

Arrival

Time 2026-04-25 14:13
Airport Los Angeles International Airport (KLAX)
Time Latitude Longitude Altitude Speed Heading
2026-04-25 13:38 35.46659 -115.12616 38047 ft 411 kts 233°
2026-04-25 13:38 35.44843 -115.15206 37845 ft 395 kts 233°
2026-04-25 13:38 35.43076 -115.17673 37858 ft 384 kts 232°
2026-04-25 13:39 35.41283 -115.20134 37866 ft 391 kts 232°
2026-04-25 13:39 35.37598 -115.25080 37865 ft 395 kts 232°
2026-04-25 13:40 35.33875 -115.29992 37911 ft 395 kts 231°
2026-04-25 13:40 35.30188 -115.34815 37887 ft 394 kts 231°
2026-04-25 13:41 35.26447 -115.39686 37884 ft 394 kts 231°
2026-04-25 13:41 35.22742 -115.44495 37875 ft 393 kts 231°
2026-04-25 13:42 35.18989 -115.49356 37875 ft 391 kts 231°
2026-04-25 13:42 35.15258 -115.54182 37865 ft 394 kts 231°
2026-04-25 13:43 35.11517 -115.59006 37867 ft 390 kts 231°
2026-04-25 13:43 35.07756 -115.63821 37859 ft 395 kts 231°
2026-04-25 13:44 35.03992 -115.68630 37771 ft 392 kts 230°
2026-04-25 13:44 35.00192 -115.73481 37863 ft 395 kts 230°
2026-04-25 13:45 34.96421 -115.78287 37822 ft 394 kts 230°
2026-04-25 13:45 34.92635 -115.83105 37865 ft 395 kts 230°
2026-04-25 13:46 34.88838 -115.87932 37871 ft 396 kts 230°
2026-04-25 13:46 34.86953 -115.90324 38019 ft 394 kts 230°
2026-04-25 13:46 34.85054 -115.92734 37835 ft 392 kts 230°
2026-04-25 13:47 34.81587 -115.97130 37877 ft 395 kts 230°
2026-04-25 13:47 34.77808 -116.01911 37882 ft 392 kts 230°
2026-04-25 13:48 34.74059 -116.06683 37878 ft 393 kts 230°
2026-04-25 13:48 34.70285 -116.11492 37877 ft 392 kts 230°
2026-04-25 13:49 34.66598 -116.16180 37860 ft 381 kts 230°
2026-04-25 13:49 34.62893 -116.20892 37858 ft 393 kts 230°
2026-04-25 13:50 34.59125 -116.25671 37859 ft 388 kts 230°
2026-04-25 13:50 34.57281 -116.28003 37502 ft 381 kts 230°
2026-04-25 13:50 34.55476 -116.30290 36514 ft 387 kts 230°
2026-04-25 13:50 34.53628 -116.32633 35340 ft 396 kts 230°
2026-04-25 13:51 34.51697 -116.35076 34189 ft 404 kts 230°
2026-04-25 13:51 34.49780 -116.37499 33204 ft 407 kts 230°
2026-04-25 13:51 34.47834 -116.39956 32228 ft 410 kts 229°
2026-04-25 13:51 34.45850 -116.42459 31162 ft 414 kts 229°
2026-04-25 13:52 34.43899 -116.44920 30150 ft 417 kts 229°
2026-04-25 13:52 34.42059 -116.47500 29378 ft 412 kts 236°
2026-04-25 13:52 34.40606 -116.50437 28780 ft 405 kts 243°
2026-04-25 13:52 34.39353 -116.53428 28196 ft 399 kts 244°
2026-04-25 13:53 34.38121 -116.56404 27606 ft 393 kts 244°
2026-04-25 13:53 34.36903 -116.59350 27028 ft 387 kts 244°
2026-04-25 13:53 34.35718 -116.62216 26462 ft 382 kts 244°
2026-04-25 13:53 34.34533 -116.65083 25899 ft 388 kts 243°
2026-04-25 13:54 34.33315 -116.68028 25334 ft 394 kts 243°
2026-04-25 13:54 34.32120 -116.70982 24736 ft 393 kts 244°
2026-04-25 13:54 34.30938 -116.73930 24130 ft 389 kts 244°
2026-04-25 13:54 34.29770 -116.76839 23535 ft 386 kts 244°
2026-04-25 13:55 34.28619 -116.79703 22957 ft 383 kts 244°
2026-04-25 13:55 34.27457 -116.82587 22370 ft 382 kts 244°
2026-04-25 13:55 34.26305 -116.85448 21759 ft 380 kts 244°
2026-04-25 13:55 34.25157 -116.88293 21155 ft 377 kts 244°
2026-04-25 13:56 34.24012 -116.91127 20562 ft 374 kts 244°
2026-04-25 13:56 34.22884 -116.93918 19973 ft 371 kts 244°
2026-04-25 13:56 34.21776 -116.96657 19381 ft 370 kts 245°
2026-04-25 13:56 34.20789 -116.99500 18793 ft 367 kts 251°
2026-04-25 13:57 34.20029 -117.02412 18399 ft 365 kts 253°
2026-04-25 13:57 34.19800 -117.03400 18269 ft 366 kts 254°
2026-04-25 13:57 34.18834 -117.08363 17675 ft 360 kts 256°
2026-04-25 13:57 34.18111 -117.11161 17629 ft 341 kts 251°
2026-04-25 13:58 34.17308 -117.13926 17627 ft 357 kts 251°
2026-04-25 13:58 34.16475 -117.16777 17627 ft 363 kts 251°
2026-04-25 13:58 34.15638 -117.19637 17508 ft 365 kts 250°
2026-04-25 13:58 34.14790 -117.22529 17062 ft 366 kts 251°
2026-04-25 13:59 34.13948 -117.25401 16479 ft 363 kts 251°
2026-04-25 13:59 34.13112 -117.28247 15880 ft 359 kts 251°
2026-04-25 13:59 34.12295 -117.31027 15280 ft 356 kts 251°
2026-04-25 13:59 34.11475 -117.33816 14684 ft 352 kts 251°
2026-04-25 14:00 34.11200 -117.34749 14485 ft 351 kts 251°
2026-04-25 14:00 34.09911 -117.39317 13581 ft 343 kts 253°
2026-04-25 14:00 34.09250 -117.42026 13196 ft 334 kts 254°
2026-04-25 14:00 34.08600 -117.44690 12802 ft 327 kts 254°
2026-04-25 14:01 34.07963 -117.47263 12399 ft 320 kts 254°
2026-04-25 14:01 34.07333 -117.49786 12006 ft 315 kts 254°
2026-04-25 14:01 34.06700 -117.52286 11707 ft 306 kts 253°
2026-04-25 14:01 34.06089 -117.54675 11490 ft 297 kts 253°
2026-04-25 14:02 34.05481 -117.57050 11271 ft 294 kts 253°
2026-04-25 14:02 34.04886 -117.59379 11035 ft 287 kts 253°
2026-04-25 14:02 34.04307 -117.61641 10807 ft 279 kts 253°
2026-04-25 14:02 34.04117 -117.62382 10732 ft 276 kts 253°
2026-04-25 14:03 34.03202 -117.65951 10379 ft 263 kts 253°
2026-04-25 14:03 34.02671 -117.68024 10176 ft 257 kts 253°
2026-04-25 14:03 34.02201 -117.70077 9974 ft 257 kts 259°
2026-04-25 14:03 34.01961 -117.72214 9691 ft 259 kts 263°
2026-04-25 14:04 34.01761 -117.74344 9368 ft 257 kts 263°
2026-04-25 14:04 34.01558 -117.76476 9063 ft 256 kts 263°
2026-04-25 14:04 34.01356 -117.78577 8770 ft 257 kts 263°
2026-04-25 14:04 34.01148 -117.80718 8472 ft 256 kts 263°
2026-04-25 14:05 34.00940 -117.82849 8172 ft 256 kts 263°
2026-04-25 14:05 34.00734 -117.84958 7876 ft 255 kts 263°
2026-04-25 14:05 34.00528 -117.87071 7581 ft 255 kts 263°
2026-04-25 14:05 34.00321 -117.89180 7291 ft 254 kts 263°
2026-04-25 14:06 34.00115 -117.91280 6997 ft 254 kts 263°
2026-04-25 14:06 33.99909 -117.93380 6717 ft 255 kts 263°
2026-04-25 14:06 33.99700 -117.95515 6444 ft 256 kts 263°
2026-04-25 14:06 33.99492 -117.97631 6173 ft 256 kts 263°
2026-04-25 14:07 33.99286 -117.99724 5910 ft 256 kts 263°
2026-04-25 14:07 33.99075 -118.01849 5697 ft 255 kts 263°
2026-04-25 14:07 33.98863 -118.03965 5497 ft 256 kts 263°
2026-04-25 14:07 33.98653 -118.06062 5288 ft 255 kts 262°
2026-04-25 14:08 33.98446 -118.08143 5076 ft 250 kts 262°
2026-04-25 14:08 33.98240 -118.10213 4862 ft 245 kts 262°
2026-04-25 14:08 33.98041 -118.12211 4659 ft 241 kts 262°
2026-04-25 14:08 33.97838 -118.14236 4348 ft 242 kts 262°
2026-04-25 14:09 33.97638 -118.16232 4031 ft 243 kts 262°
2026-04-25 14:09 33.97429 -118.18229 3711 ft 231 kts 262°
2026-04-25 14:09 33.97249 -118.20043 3437 ft 212 kts 262°
2026-04-25 14:09 33.97194 -118.20623 3351 ft 208 kts 262°
2026-04-25 14:10 33.96931 -118.23364 2930 ft 189 kts 262°
2026-04-25 14:10 33.96778 -118.24886 2690 ft 180 kts 262°
2026-04-25 14:10 33.96632 -118.26324 2465 ft 170 kts 262°
2026-04-25 14:10 33.96493 -118.27694 2239 ft 162 kts 262°
2026-04-25 14:11 33.96360 -118.28997 2028 ft 154 kts 262°
2026-04-25 14:11 33.96226 -118.30306 1813 ft 159 kts 262°
2026-04-25 14:11 33.96092 -118.31606 1596 ft 159 kts 262°
2026-04-25 14:11 33.95958 -118.32919 1374 ft 158 kts 262°
2026-04-25 14:12 33.95822 -118.34242 1152 ft 158 kts 262°
2026-04-25 14:12 33.95689 -118.35543 934 ft 156 kts 262°
2026-04-25 14:12 33.95556 -118.36842 718 ft 155 kts 262°
2026-04-25 14:12 33.95425 -118.38113 506 ft 154 kts 262°
2026-04-25 14:13 33.95293 -118.39391 293 ft 153 kts 262°
2026-04-25 14:13 33.95166 -118.40643 137 ft 149 kts 262°
2026-04-25 14:13 33.95048 -118.41740 130 ft 112 kts 264°
2026-04-25 14:13 33.94981 -118.42414 125 ft 40 kts 259°
2026-04-25 14:14 33.94917 -118.42584 123 ft 18 kts 238°
2026-04-25 14:14 33.94864 -118.42663 121 ft 0 kts 229°
2026-04-25 14:14 33.94849 -118.42682 120 ft 7 kts 227°
2026-04-25 14:14 33.94780 -118.42749 117 ft 15 kts 211°
2026-04-25 14:15 33.94675 -118.42781 117 ft 9 kts 177°
2026-04-25 14:15 33.94657 -118.42779 117 ft 5 kts 166°
2026-04-25 14:15 33.94637 -118.42690 116 ft 8 kts 82°
2026-04-25 14:15 33.94644 -118.42619 117 ft 8 kts 82°
2026-04-25 14:16 33.94654 -118.42538 119 ft 10 kts 82°
2026-04-25 14:16 33.94664 -118.42443 121 ft 10 kts 83°
2026-04-25 14:16 33.94673 -118.42348 123 ft 12 kts 83°
2026-04-25 14:16 33.94685 -118.42231 123 ft 16 kts 84°
2026-04-25 14:17 33.94698 -118.42082 126 ft 18 kts 84°
2026-04-25 14:17 33.94714 -118.41917 127 ft 21 kts 83°
2026-04-25 14:17 33.94733 -118.41724 127 ft 24 kts 83°
2026-04-25 14:17 33.94754 -118.41509 128 ft 26 kts 84°
2026-04-25 14:18 33.94778 -118.41335 129 ft 12 kts 86°
2026-04-25 14:18 33.94711 -118.41286 128 ft 13 kts 167°
2026-04-25 14:18 33.94615 -118.41276 127 ft 14 kts 175°
2026-04-25 14:18 33.94512 -118.41259 127 ft 15 kts 172°
2026-04-25 14:19 33.94413 -118.41243 127 ft 11 kts 165°
2026-04-25 14:19 33.94396 -118.41192 127 ft 4 kts 81°
2026-04-25 14:19 33.94402 -118.41148 127 ft 4 kts 82°
2026-04-25 14:19 33.94403 -118.41138 127 ft 1 kts 84°
2026-04-25 14:20 33.94403 -118.41137 127 ft 0 kts 84°